BREEZE-M R/B, 40385

Orbit data source: Space-Track

BREEZE-M R/B, 40385 is space debris in HEO originally from a launch on Sun, 01 Feb 2015 UTC launched from the Tyuratam Missile And Space Complex (TTMTR). Debris objects in space refer to the collection of defunct objects orbiting the Earth. Examples of debris include non-operational satellites, rocket bodies, and fragments generated from explosions, collisions, or faulty payload assembly.

Not visible in the next 10 days
BREEZE-M R/B details
Identifier
40385, 2015-005B
Orbit
HEO
Last TLE update17 hours ago
Origin
Flag of CISKhrunichev (CIS)
ManufacturerKhrunichev
MissionSpacecraft
Bus & MotorBRIZ, Unknown motor
Mass~1,600 kg wet, 1,600 kg dry
Launch date (UTC)
2015-02-01 (10 years ago)
Launch vehicleUnknown
Launch site
Tyuratam Missile And Space Complex (TTMTR)
Object type
Payload
Rocket body
Debris
Shape & HBRCyl, 4 m
Radar Cross Section14.451 m², Large (>1 m²)

Expand to show TLE details & history

TLE from 17 hours ago
0 BREEZE-M R/B
1 40385U 15005B   24338.70349696 -.00000113  00000-0  00000+0 0  9990
2 40385  28.3760 326.7415 7632554  45.8223 355.9866  1.11107877 39627
Epoch: 2024-12-03T16:53Z
Definitive object data (Epoch: 2024-12-03T16:53:02.137Z)
Latitude0.00011°
Longitude0.3801°
Altitude4,408.172 km
Speed7.986 km/s
True Right ascension21h 46m 35s
True Declination0° 00' 00"
Sunlit
Object was in daylight at TLE epoch
Visualization TLE readout
Latitude-26.81089°
Longitude-110.23578°
Altitude46,441.834 km
Speed2.23 km/s
Apparent Right ascension14h 47m 28s
Apparent Declination-30° 11' 49"
Sunlit
Object is in daylight
Visualization observer readout
Local Sidereal Time08:00:12
Azimuth107.835° ESE
Elevation-27.292°
Doppler factor1
Orbital elements
Apogee altitude63,057.806 km
Perigee altitude2,944.724 km
Semi-major axis39,379.402 km
Eccentricity0.7632554
Inclination28.376°
RAAN326.7415°
Arg. of periapsis45.8223°
True anomaly317.41982°
Mean anomaly355.9866°
Eccentric anomaly343.74742°
Mean motion0.27774 °/min
BSTARUnknown
Orbital period1296.17 mins
Loading maneuver chart data...
Loading historical data...
Loading historical data...
Loading historical data...
Loading historical data...
Loading historical data...
Loading historical data...
Loading historical data...
Other satellites on launch #5 in the year 2015 (2015-02-01 UTC)

BREEZE-M R/B Visibility forecast

Observer location: undefined°, undefined

BREEZE-M R/B is not visible in the next 10 days
Span
Click to sort rows by Start time (UTC) header in descending order
Start Az.
Max El. time (UTC)
Max El. Az.
Max El.
End time (UTC)
End Az.
|